Home > Weather > Syracuse > Past weeks

Flag for USA Past Weather in Syracuse, New York, USA — Yesterday and Last 2 Weeks

Now
74 °F

Sunny.


Feels Like: 77 °F
Forecast: 62 / 90 °F
Wind: 6 mph from Northwest

Location: Syracuse Hancock International Airport

Current Time: Jul 26, 2016 at 9:25:45 PM

Latest Report: Jul 26, 2016 at 8:54 PM


Visibility: 10 mi

Pressure: 29.93 "Hg

Humidity: 62%

Dew Point: 60 °F

Location of SyracuseLocation

Past Weather in Syracuse — Graph

°F

Syracuse Temperature Yesterday

Maximum temperature yesterday: 81 °F (at 6:54 PM)
Minimum temperature yesterday: 65 °F (at 4:54 AM)
Average temperature yesterday: 73 °F

High & Low Weather Summary for the Past Weeks

 TemperatureHumidityPressure
High91 °F (Jul 13, 12:54 PM)100% (Jul 25, 10:54 AM)30.24 "Hg (Jul 25, 10:54 AM)
Low54 °F (Jul 20, 5:54 AM)32% (Jul 21, 5:54 PM)29.71 "Hg (Jul 14, 4:54 PM)
Average74 °F66%29.96 "Hg
* Reported Jul 11 7:54 PM — Jul 26 7:54 PM, Syracuse, Weather by CustomWeather, © 2016

Note: Actual official high and low records may vary slightly from our data, if they occured in-between our weather recording intervals... More about our weather records

Advertising

Syracuse Weather History for the Previous 24 Hours

Scroll right to see more
 ConditionsComfort  
Time TempWeatherWind HumidityBarometerVisibility
7:54 PM
Tue, Jul 26
77 °FPassing clouds.7 mph56%29.92 "Hg10 mi
6:54 PM80 °FPassing clouds.9 mph47%29.91 "Hg10 mi
5:54 PM81 °FPassing clouds.12 mph49%29.92 "Hg10 mi
4:54 PM81 °FPassing clouds.10 mph51%29.91 "Hg10 mi
3:54 PM81 °FScattered clouds.9 mph54%29.93 "Hg10 mi
2:54 PM81 °FBroken clouds.12 mph54%29.94 "Hg10 mi
1:54 PM79 °FBroken clouds.12 mph60%29.94 "Hg10 mi
12:54 PM78 °FBroken clouds.9 mph62%29.95 "Hg10 mi
11:54 AM77 °FBroken clouds.8 mph64%29.94 "Hg10 mi
10:54 AM76 °FBroken clouds.10 mph69%29.94 "Hg10 mi
9:54 AM72 °FPartly sunny.17 mph78%29.93 "Hg10 mi
8:54 AM71 °FPartly sunny.14 mph84%29.92 "Hg10 mi
7:54 AM71 °FScattered clouds.14 mph84%29.91 "Hg10 mi
6:54 AM69 °FPassing clouds.10 mph90%29.89 "Hg10 mi
5:54 AM68 °FPassing clouds.9 mph93%29.88 "Hg10 mi
4:54 AM68 °FPassing clouds.9 mph96%29.86 "Hg10 mi
3:54 AM70 °FPassing clouds.9 mph97%29.85 "Hg9 mi
2:54 AM69 °FPassing clouds.6 mph100%29.85 "Hg8 mi
1:54 AM70 °FPassing clouds.5 mph100%29.84 "Hg9 mi
12:54 AM71 °FPassing clouds.6 mph96%29.84 "Hg10 mi
11:54 PM
Mon, Jul 25
72 °FPartly cloudy.6 mph93%29.85 "Hg10 mi
10:54 PM73 °FMostly cloudy.9 mph97%29.83 "Hg10 mi
9:54 PM72 °FRain. Fog.14 mph100%29.81 "Hg3 mi
Weather by CustomWeather, © 2016

See weather overviewHow to use our weather pages